Location: Partizánske
(48.6285°N, 18.3769°E)
Time: 03:28:43
(UTC+01:00)

ISS - Visible Passes

Search period start: 01 December 2023 00:00
Search period end: 11 December 2023 00:00
Orbit: 416 x 417 km, 51.6° (Epoch: 30 November)

Date Brightness Start Highest point End Pass type
(mag) Time Alt. Az. Time Alt. Az. Time Alt. Az.
01 Dec -3.6 16:41:52 10° WNW 16:45:11 60° NNE 16:48:31 10° E visible
01 Dec -2.5 18:18:42 10° WNW 18:21:30 39° SW 18:21:30 39° SW visible
02 Dec -3.4 17:30:11 10° WNW 17:33:31 61° SSW 17:35:25 23° SE visible
02 Dec -0.3 19:08:11 10° WSW 19:08:21 11° WSW 19:08:21 11° WSW visible
03 Dec -3.7 16:41:40 10° WNW 16:45:02 86° SSW 16:48:24 10° ESE visible
03 Dec -1.4 18:18:55 10° W 18:21:25 19° SW 18:22:26 17° SSW visible
04 Dec -1.8 17:30:04 10° W 17:33:01 29° SW 17:35:58 10° SSE visible
05 Dec -2.5 16:41:20 10° WNW 16:44:32 43° SSW 16:47:44 10° SE visible
06 Dec -0.6 17:30:26 10° WSW 17:32:10 13° SW 17:33:54 10° SSW visible
07 Dec -0.9 16:41:06 10° W 16:43:41 21° SW 16:46:15 10° S visible
